Location: Vihti�l�
(61.3833°N, 23.0667°E)
Time: 04:49:59
(UTC+00:00)

SL-27 R/B - Pass Details

Date: 29 November 2020
Orbit: 419 x 469 km, 74.7° (Epoch: 22 January)

Event Time Altitude Azimuth Distance (km) Brightness Sun altitude
Exits shadow 06:09:57 - 333° (NNW) 1,884 5.0 -6.3°
Reaches altitude 10° 06:10:49 10° 337° (NNW) 1,544 4.6 -6.3°
Maximum altitude 06:14:00 38° 47° (NE) 678 3.4 -5.9°
Drops below altitude 10° 06:17:08 10° 118° (ESE) 1,517 6.9 -5.6°
Sets 06:19:16 0° 126° (SE) 2,375 9.1 -5.4°
